Surface/Precipitation History
09/04/2015 10:18  to  9/5/2015 10:18
Change End Date:
Date/Time
(MDT)
Sf
Temp Chem Water Layer Surface Precipitation
Sfc Pvt Sub Frz Factor Pct Dpth DpthThk IcePct Cond Salin FI Type Intens Accum Rate
09/05/2015 10:16 Wet 51.6F - 64F 32F 5 0% 0.00 in - 0% 0 mhos 0 - None None - -
09/05/2015 10:14 Wet 51.6F - 64F 32F 5 0% 0.00 in - 0% 0 mhos 0 - None None - -
09/05/2015 10:04 Wet 51.6F - 64F 32F 5 0% 0.00 in - 0% 0 mhos 1 - None None - -
09/05/2015 10:01 Wet 51.4F - 64F 32F 5 0% 0.00 in - 0% 0 mhos 1 - None None - -
09/05/2015 09:54 Wet 51.6F - 64F 32F 5 0% 0.00 in - 0% 0 mhos 2 - Yes - - -
09/05/2015 09:46 Wet 51.6F - 64F 32F 5 0% 0.00 in - 0% 0 mhos 3 - None None - -
09/05/2015 09:44 Wet 51.6F - 64F 32F 5 0% 0.00 in - 0% 0 mhos 3 - None None - -
09/05/2015 09:34 Wet 51.3F - 64F 32F 5 0% 0.00 in - 0% 0 mhos 3 - None None - -
09/05/2015 09:31 Wet 51.4F - 64F 32F 5 0% 0.00 in - 0% 0 mhos 5 - None None - -
09/05/2015 09:24 Wet 51.1F - 64F 32F 5 0% 0.00 in - 0% 0 mhos 5 - Yes - - -
09/05/2015 09:16 Wet 51.4F - 64F 32F 5 0% 0.00 in - 0% 0 mhos 6 - Yes - - -
09/05/2015 09:14 Wet 51.4F - 64F 32F 5 0% 0.00 in - 0% 0 mhos 6 - Yes - - -
09/05/2015 09:04 Wet 51.3F - 64F 32F 5 0% 0.00 in - 0% 0 mhos 8 - Yes - - -
09/05/2015 09:01 Wet 51.4F - 65F 32F 5 0% 0.00 in - 0% 0 mhos 7 - Yes - - -
09/05/2015 08:53 Wet 51.4F - 65F 32F 5 0% 0.00 in - 0% 0 mhos 9 - Yes - - -
Date/Time
(MDT)
Sf
Temp Chem Water Layer Surface Precipitation
Sfc Pvt Sub Frz Factor Pct Dpth DpthThk IcePct Cond Salin FI Type Intens Accum Rate
09/05/2015 08:46 Wet 51.3F - 65F 32F 5 0% 0.00 in - 0% 0 mhos 8 - Yes - - -
09/05/2015 08:43 Wet 51.3F - 65F 32F 5 0% 0.00 in - 0% 0 mhos 7 - Yes - - -
09/05/2015 08:33 Wet 51.4F - 65F 32F 5 0% 0.00 in - 0% 0 mhos 9 - Yes - - -
09/05/2015 08:31 Wet 51.3F - 65F 32F 5 0% 0.00 in - 0% 0 mhos 8 - Yes - - -
09/05/2015 08:23 Wet 51.3F - 65F 32F 5 0% 0.00 in - 0% 0 mhos 8 - None None - -
09/05/2015 08:16 Wet 51.1F - 65F 32F 5 0% 0.00 in - 0% 0 mhos 9 - None None - -
09/05/2015 08:13 Wet 51.1F - 65F 32F 5 0% 0.00 in - 0% 0 mhos 8 - Yes - - -
09/05/2015 08:03 Wet 50.9F - 65F 32F 5 0% 0.00 in - 0% 0 mhos 7 - None None - -
09/05/2015 08:01 Wet 51.1F - 65F 32F 5 0% 0.00 in - 0% 0 mhos 9 - None None - -
09/05/2015 07:53 Wet 51.1F - 65F 32F 5 0% 0.00 in - 0% 0 mhos 8 - None None - -
09/05/2015 07:46 Wet 51.4F - 65F 32F 5 0% 0.00 in - 0% 0 mhos 7 - None None - -
09/05/2015 07:43 Wet 51.4F - 65F 32F 5 0% 0.00 in - 0% 0 mhos 7 - Yes - - -
09/05/2015 07:33 Wet 51.4F - 65F 32F 5 0% 0.00 in - 0% 0 mhos 6 - Yes - - -
09/05/2015 07:31 Wet 51.3F - 65F 32F 5 0% 0.00 in - 0% 0 mhos 6 - Yes - - -
09/05/2015 07:23 Wet 51.1F - 65F 32F 5 0% 0.00 in - 0% 0 mhos 6 - Yes - - -
Date/Time
(MDT)
Sf
Temp Chem Water Layer Surface Precipitation
Sfc Pvt Sub Frz Factor Pct Dpth DpthThk IcePct Cond Salin FI Type Intens Accum Rate
09/05/2015 07:16 Wet 51.1F - 65F 32F 5 0% 0.00 in - 0% 0 mhos 3 - Yes - - -
09/05/2015 07:13 Wet 51.3F - 65F 32F 5 0% 0.00 in - 0% 0 mhos 2 - Yes - - -
09/05/2015 07:03 Wet 51.4F - 65F 32F 5 0% 0.00 in - 0% 0 mhos 3 - Yes - - -
09/05/2015 07:01 Wet 51.4F - 65F 32F 5 0% 0.00 in - 0% 0 mhos 3 - Yes - - -
09/05/2015 06:53 Wet 51.6F - 65F 32F 5 0% 0.00 in - 0% 0 mhos 3 - Yes - - -
09/05/2015 06:46 Wet 51.6F - 65F 32F 5 0% 0.00 in - 0% 0 mhos 3 - Yes - - -
09/05/2015 06:43 Wet 51.6F - 65F 32F 5 0% 0.00 in - 0% 0 mhos 1 - Yes - - -
09/05/2015 06:32 Wet 51.8F - 65F 32F 5 0% 0.10 in - 0% 0 mhos 1 - Yes - - -
09/05/2015 06:31 Wet 51.8F - 65F 32F 5 0% 0.10 in - 0% 0 mhos 1 - Yes - - -
09/05/2015 06:22 Wet 51.8F - 65F 32F 10 0% 0.10 in - 0% 0 mhos 2 - Yes - - -
09/05/2015 06:16 Wet 51.8F - 65F 32F 5 0% 0.10 in - 0% 0 mhos 3 - Yes - - -
09/05/2015 06:12 Wet 51.6F - 65F 32F 5 0% 0.00 in - 0% 0 mhos 3 - Yes - - -
09/05/2015 06:02 Wet 51.8F - 65F 32F 5 0% 0.00 in - 0% 0 mhos 7 - Yes - - -
09/05/2015 06:01 Wet 51.8F - 65F 32F 5 0% 0.00 in - 0% 0 mhos 6 - Yes - - -
09/05/2015 05:52 Wet 52.2F - 65F 32F 5 0% 0.00 in - 0% 0 mhos 7 - Yes - - -
Date/Time
(MDT)
Sf
Temp Chem Water Layer Surface Precipitation
Sfc Pvt Sub Frz Factor Pct Dpth DpthThk IcePct Cond Salin FI Type Intens Accum Rate
09/05/2015 05:46 Wet 51.8F - 65F 32F 5 0% 0.00 in - 0% 0 mhos 5 - Yes - - -
09/05/2015 05:42 Wet 52.2F - 65F 32F 5 0% 0.00 in - 0% 0 mhos 6 - Yes - - -
09/05/2015 05:32 Wet 52.0F - 65F 32F 5 0% 0.00 in - 0% 0 mhos 5 - Yes - - -
09/05/2015 05:31 Wet 52.0F - 65F 32F 5 0% 0.00 in - 0% 0 mhos 5 - Yes - - -
09/05/2015 05:22 Wet 51.6F - 65F 32F 5 0% 0.00 in - 0% 0 mhos 2 - Yes - - -
09/05/2015 05:16 Wet 52.2F - 65F 32F 10 0% 0.00 in - 0% 0 mhos 4 - Yes - - -
09/05/2015 05:12 Wet 52.2F - 65F 32F 5 0% 0.00 in - 0% 0 mhos 4 - Yes - - -
09/05/2015 05:02 Wet 52.2F - 66F 32F 20 0% 0.00 in - 0% 0 mhos 12 - Yes - - -
09/05/2015 05:01 Wet 52.2F - 66F 32F 25 0% 0.00 in - 0% 0 mhos 12 - Yes - - -
09/05/2015 04:52 Wet 52.2F - 66F 32F 5 0% 0.00 in - 0% 0 mhos 18 - Yes - - -
09/05/2015 04:46 Wet 52.2F - 66F 32F 5 0% 0.00 in - 0% 0 mhos 19 - Yes - - -
09/05/2015 04:42 Wet 52.2F - 66F 32F 5 0% 0.00 in - 0% 0 mhos 19 - None None - -
09/05/2015 04:32 Wet 52.2F - 66F 32F 5 0% 0.00 in - 0% 0 mhos 19 - Yes - - -
09/05/2015 04:31 Wet 52.2F - 66F 32F 5 0% 0.00 in - 0% 0 mhos 20 - Yes - - -
09/05/2015 04:22 Wet 52.3F - 66F 32F 5 0% 0.00 in - 0% 0 mhos 19 - Yes - - -
Date/Time
(MDT)
Sf
Temp Chem Water Layer Surface Precipitation
Sfc Pvt Sub Frz Factor Pct Dpth DpthThk IcePct Cond Salin FI Type Intens Accum Rate
09/05/2015 04:16 Wet 52.3F - 66F 32F 5 0% 0.00 in - 0% 0 mhos 19 - Yes - - -
09/05/2015 04:12 Wet 52.3F - 66F 32F 5 0% 0.00 in - 0% 0 mhos 18 - Yes - - -
09/05/2015 04:02 Wet 52.2F - 66F 32F 5 0% 0.00 in - 0% 0 mhos 16 - Yes - - -
09/05/2015 04:01 Wet 52.2F - 66F 32F 5 0% 0.00 in - 0% 0 mhos 16 - Yes - - -
09/05/2015 03:51 Wet 51.8F - 66F 32F 5 0% 0.00 in - 0% 0 mhos 15 - Yes - - -
09/05/2015 03:46 Wet 52.0F - 66F 32F 5 0% 0.00 in - 0% 0 mhos 15 - Yes - - -
09/05/2015 03:41 Wet 52.2F - 66F 32F 5 0% 0.00 in - 0% 0 mhos 14 - Yes - - -
09/05/2015 03:31 Wet 52.3F - 66F 32F 25 0% 0.00 in - 0% 0 mhos 10 - Yes - - -
09/05/2015 03:31 Wet 52.3F - 66F 32F 25 0% 0.00 in - 0% 0 mhos 10 - Yes - - -
09/05/2015 03:21 Wet 52.2F - 66F 32F 25 0% 0.00 in - 0% 0 mhos 8 - Yes - - -
09/05/2015 03:16 Wet 52.7F - 66F 32F 20 0% 0.00 in - 0% 0 mhos 7 - Yes - - -
09/05/2015 03:11 Wet 52.7F - 66F 32F 20 0% 0.00 in - 0% 0 mhos 6 - Yes - - -
09/05/2015 03:01 Wet 52.7F - 66F 32F 5 0% 0.00 in - 0% 0 mhos 6 - Yes - - -
09/05/2015 03:01 Wet 52.7F - 66F 32F 5 0% 0.00 in - 0% 0 mhos 6 - Yes - - -
09/05/2015 02:51 Wet 52.5F - 66F 32F 5 0% 0.00 in - 0% 0 mhos 5 - Yes - - -
Date/Time
(MDT)
Sf
Temp Chem Water Layer Surface Precipitation
Sfc Pvt Sub Frz Factor Pct Dpth DpthThk IcePct Cond Salin FI Type Intens Accum Rate
09/05/2015 02:46 Wet 52.7F - 66F 32F 10 0% 0.00 in - 0% 0 mhos 5 - Yes - - -
09/05/2015 02:41 Wet 52.7F - 66F 32F 5 0% 0.00 in - 0% 0 mhos 5 - Yes - - -
09/05/2015 02:31 Wet 52.5F - 66F 32F 15 0% 0.00 in - 0% 0 mhos 4 - Yes - - -
09/05/2015 02:31 Wet 52.7F - 66F 32F 15 0% 0.00 in - 0% 0 mhos 4 - Yes - - -
09/05/2015 02:21 Wet 52.9F - 66F 32F 10 0% 0.00 in - 0% 0 mhos 3 - Yes - - -
09/05/2015 02:16 Wet 53.2F - 66F 32F 5 0% 0.00 in - 0% 0 mhos 3 - Yes - - -
09/05/2015 02:11 Wet 53.4F - 66F 32F 10 0% 0.10 in - 0% 0 mhos 3 - Yes - - -
09/05/2015 02:01 Wet 53.8F - 66F 32F 10 0% 0.00 in - 0% 0 mhos 4 - Yes - - -
09/05/2015 02:01 Wet 53.8F - 66F 32F 15 0% 0.00 in - 0% 0 mhos 4 - Yes - - -
09/05/2015 01:51 Wet 53.8F - 66F 32F 15 0% 0.00 in - 0% 0 mhos 6 - Yes - - -
09/05/2015 01:46 Wet 53.8F - 66F 32F 20 0% 0.00 in - 0% 0 mhos 6 - Yes - - -
09/05/2015 01:41 Wet 53.8F - 66F 32F 20 0% 0.00 in - 0% 0 mhos 7 - Yes - - -
09/05/2015 01:31 Wet 53.8F - 66F 32F 20 0% 0.00 in - 0% 0 mhos 6 - Yes - - -
09/05/2015 01:31 Wet 53.8F - 66F 32F 20 0% 0.00 in - 0% 0 mhos 6 - Yes - - -
09/05/2015 01:21 Wet 53.8F - 66F 32F 20 0% 0.00 in - 0% 0 mhos 5 - Yes - - -
Date/Time
(MDT)
Sf
Temp Chem Water Layer Surface Precipitation
Sfc Pvt Sub Frz Factor Pct Dpth DpthThk IcePct Cond Salin FI Type Intens Accum Rate
09/05/2015 01:16 Wet 53.8F - 66F 32F 20 0% 0.00 in - 0% 0 mhos 5 - Yes - - -
09/05/2015 01:10 Wet 53.8F - 66F 32F 20 0% 0.00 in - 0% 0 mhos 4 - Yes - - -
09/05/2015 01:01 Wet 54.0F - 66F 32F 15 0% 0.00 in - 0% 0 mhos 5 - Yes - - -
09/05/2015 01:00 Wet 54.0F - 66F 32F 15 0% 0.00 in - 0% 0 mhos 5 - Yes - - -
09/05/2015 00:50 Wet 53.6F - 66F 32F 15 0% 0.00 in - 0% 0 mhos 8 - Yes - - -
09/05/2015 00:46 Wet 54.0F - 66F 32F 25 0% 0.00 in - 0% 0 mhos 9 - Yes - - -
09/05/2015 00:40 Wet 54.0F - 66F 32F 5 0% 0.00 in - 0% 0 mhos 8 - Yes - - -
09/05/2015 00:31 Wet 54.1F - 66F 32F 20 0% 0.00 in - 0% 0 mhos 6 - Yes - - -
09/05/2015 00:30 Wet 54.1F - 66F 32F 20 0% 0.00 in - 0% 0 mhos 6 - Yes - - -
09/05/2015 00:20 Wet 54.0F - 67F 32F 20 0% 0.00 in - 0% 0 mhos 6 - Yes - - -
09/05/2015 00:16 Wet 54.1F - 67F 32F 25 0% 0.00 in - 0% 0 mhos 6 - Yes - - -
09/05/2015 00:10 Wet 54.1F - 67F 32F 30 0% 0.00 in - 0% 0 mhos 7 - Yes - - -
09/05/2015 00:01 Wet 54.3F - 67F 32F 25 0% 0.00 in - 0% 0 mhos 8 - Yes - - -
09/05/2015 00:00 Wet 54.1F - 67F 32F 20 0% 0.00 in - 0% 0 mhos 8 - Yes - - -
09/04/2015 23:50 Wet 54.0F - 67F 32F 5 0% 0.00 in - 0% 0 mhos 13 - Yes - - -
Date/Time
(MDT)
Sf
Temp Chem Water Layer Surface Precipitation
Sfc Pvt Sub Frz Factor Pct Dpth DpthThk IcePct Cond Salin FI Type Intens Accum Rate
09/04/2015 23:46 Wet 54.0F - 67F 32F 5 0% 0.00 in - 0% 0 mhos 12 - None None - -
09/04/2015 23:40 Wet 54.3F - 67F 32F 15 0% 0.00 in - 0% 0 mhos 10 - Yes - - -
09/04/2015 23:31 Wet 54.3F - 67F 32F 40 0% 0.00 in - 0% 0 mhos 9 - Yes - - -
09/04/2015 23:30 Wet 54.5F - 67F 32F 40 0% 0.00 in - 0% 0 mhos 8 - Yes - - -
09/04/2015 23:20 Wet 54.5F - 67F 32F 35 0% 0.00 in - 0% 0 mhos 7 - Yes - - -
09/04/2015 23:16 Wet 54.5F - 67F 32F 40 0% 0.00 in - 0% 0 mhos 9 - Yes - - -
09/04/2015 23:10 Wet 54.5F - 67F 32F 10 0% 0.00 in - 0% 0 mhos 22 - Yes - - -
09/04/2015 23:01 Wet 55.0F - 67F 32F 70 0% 0.00 in - 0% 0 mhos 30 - Yes - - -
09/04/2015 23:00 Wet 55.2F - 67F 32F 65 0% 0.00 in - 0% 0 mhos 32 - Yes - - -
09/04/2015 22:49 Wet 55.0F - 67F 32F 20 0% 0.00 in - 0% 1 mhos 51 - Yes - - -
09/04/2015 22:46 Wet 55.0F - 67F 32F 5 0% 0.00 in - 0% 0 mhos 6 - Yes - - -
09/04/2015 22:39 Wet 55.8F - 67F 32F 5 0% 0.00 in - 0% 0 mhos 1 - Yes - - -
09/04/2015 22:31 Dry 56.7F - 67F - - - - - - 0 mhos 0 - None None - -
09/04/2015 22:29 Dry 56.7F - 67F - - - - - - 0 mhos 0 - None None - -
09/04/2015 22:19 Dry 56.5F - 67F - - - - - - 0 mhos 0 - None None - -
Date/Time
(MDT)
Sf
Temp Chem Water Layer Surface Precipitation
Sfc Pvt Sub Frz Factor Pct Dpth DpthThk IcePct Cond Salin FI Type Intens Accum Rate
09/04/2015 22:16 Dry 56.5F - 67F - - - - - - 0 mhos 0 - None None - -
09/04/2015 22:09 Dry 56.3F - 67F - - - - - - 0 mhos 0 - None None - -
09/04/2015 22:01 Dry 56.3F - 67F - - - - - - 0 mhos 0 - None None - -
09/04/2015 21:59 Dry 56.3F - 67F - - - - - - 0 mhos 0 - None None - -
09/04/2015 21:49 Dry 56.1F - 67F - - - - - - 0 mhos 0 - None None - -
09/04/2015 21:46 Dry 55.9F - 67F - - - - - - 0 mhos 0 - None None - -
09/04/2015 21:39 Dry 55.8F - 67F - - - - - - 0 mhos 0 - None None - -
09/04/2015 21:31 Dry 55.9F - 67F - - - - - - 0 mhos 0 - None None - -
09/04/2015 21:29 Dry 55.9F - 67F - - - - - - 0 mhos 0 - None None - -
09/04/2015 21:19 Dry 57.6F - 67F - - - - - - 0 mhos 0 - None None - -
09/04/2015 21:16 Dry 57.6F - 67F - - - - - - 0 mhos 0 - None None - -
09/04/2015 21:09 Dry 57.7F - 67F - - - - - - 0 mhos 0 - None None - -
09/04/2015 21:01 Dry 57.7F - 67F - - - - - - 0 mhos 0 - None None - -
09/04/2015 20:59 Dry 57.7F - 67F - - - - - - 0 mhos 0 - None None - -
09/04/2015 20:49 Dry 58.1F - 67F - - - - - - 0 mhos 0 - None None - -
Date/Time
(MDT)
Sf
Temp Chem Water Layer Surface Precipitation
Sfc Pvt Sub Frz Factor Pct Dpth DpthThk IcePct Cond Salin FI Type Intens Accum Rate
09/04/2015 20:46 Dry 58.3F - 67F - - - - - - 0 mhos 0 - None None - -
09/04/2015 20:39 Dry 58.5F - 67F - - - - - - 0 mhos 0 - None None - -
09/04/2015 20:31 Dry 58.5F - 67F - - - - - - 0 mhos 0 - None None - -
09/04/2015 20:29 Dry 58.5F - 67F - - - - - - 0 mhos 0 - None None - -
09/04/2015 20:18 Dry 58.1F - 67F - - - - - - 0 mhos 0 - None None - -
09/04/2015 20:16 Dry 58.3F - 66F - - - - - - 0 mhos 0 - None None - -
09/04/2015 20:08 Dry 58.6F - 66F - - - - - - 0 mhos 0 - None None - -
09/04/2015 20:01 Dry 59.2F - 66F - - - - - - 0 mhos 0 - None None - -
09/04/2015 19:58 Dry 59.2F - 66F - - - - - - 0 mhos 0 - None None - -
09/04/2015 19:48 Dry 59.5F - 66F - - - - - - 0 mhos 0 - None None - -
09/04/2015 19:46 Dry 59.9F - 66F - - - - - - 0 mhos 0 - None None - -
09/04/2015 19:38 Dry 59.9F - 66F - - - - - - 0 mhos 0 - None None - -
09/04/2015 19:31 Dry 60.3F - 66F - - - - - - 0 mhos 0 - None None - -
09/04/2015 19:28 Dry 60.6F - 66F - - - - - - 0 mhos 0 - None None - -
09/04/2015 19:18 Dry 61.0F - 66F - - - - - - 0 mhos 0 - None None - -
Date/Time
(MDT)
Sf
Temp Chem Water Layer Surface Precipitation
Sfc Pvt Sub Frz Factor Pct Dpth DpthThk IcePct Cond Salin FI Type Intens Accum Rate
09/04/2015 19:16 Dry 61.2F - 66F - - - - - - 0 mhos 0 - None None - -
09/04/2015 19:08 Dry 61.9F - 66F - - - - - - 0 mhos 0 - None None - -
09/04/2015 19:01 Dry 62.2F - 66F - - - - - - 0 mhos 0 - None None - -
09/04/2015 18:58 Dry 62.2F - 66F - - - - - - 0 mhos 0 - None None - -
09/04/2015 18:48 Dry 63.0F - 66F - - - - - - 0 mhos 0 - None None - -
09/04/2015 18:46 Dry 63.3F - 66F - - - - - - 0 mhos 0 - None None - -
09/04/2015 18:38 Dry 63.9F - 66F - - - - - - 0 mhos 0 - None None - -
09/04/2015 18:31 Dry 64.8F - 66F - - - - - - 0 mhos 0 - None None - -
09/04/2015 18:28 Dry 64.9F - 66F - - - - - - 0 mhos 0 - None None - -
09/04/2015 18:18 Dry 66.4F - 66F - - - - - - 0 mhos 0 - None None - -
09/04/2015 18:16 Dry 66.6F - 66F - - - - - - 0 mhos 0 - None None - -
09/04/2015 18:08 Dry 66.9F - 66F - - - - - - 0 mhos 0 - None None - -
09/04/2015 18:01 Dry 68.0F - 66F - - - - - - 0 mhos 0 - None None - -
09/04/2015 17:57 Dry 67.6F - 66F - - - - - - 0 mhos 0 - None None - -
09/04/2015 17:47 Dry 68.0F - 66F - - - - - - 0 mhos 0 - None None - -
Date/Time
(MDT)
Sf
Temp Chem Water Layer Surface Precipitation
Sfc Pvt Sub Frz Factor Pct Dpth DpthThk IcePct Cond Salin FI Type Intens Accum Rate
09/04/2015 17:46 Dry 68.0F - 66F - - - - - - 0 mhos 0 - None None - -
09/04/2015 17:37 Dry 66.7F - 66F - - - - - - 0 mhos 0 - None None - -
09/04/2015 17:31 Dry 66.9F - 66F - - - - - - 0 mhos 0 - None None - -
09/04/2015 17:27 Dry 66.0F - 66F - - - - - - 0 mhos 0 - None None - -
09/04/2015 17:17 Dry 65.7F - 66F - - - - - - 0 mhos 0 - None None - -
09/04/2015 17:16 Dry 65.7F - 66F - - - - - - 0 mhos 0 - None None - -
09/04/2015 17:07 Dry 66.4F - 66F - - - - - - 0 mhos 0 - None None - -
09/04/2015 17:01 Dry 67.8F - 66F - - - - - - 0 mhos 0 - None None - -
09/04/2015 16:57 Dry 68.4F - 66F - - - - - - 0 mhos 0 - None None - -
09/04/2015 16:47 Dry 69.4F - 66F - - - - - - 0 mhos 0 - None None - -
09/04/2015 16:46 Dry 70.2F - 66F - - - - - - 0 mhos 0 - None None - -
09/04/2015 16:37 Dry 69.3F - 66F - - - - - - 0 mhos 0 - None None - -
09/04/2015 16:31 Dry 68.5F - 66F - - - - - - 0 mhos 0 - None None - -
09/04/2015 16:27 Dry 68.4F - 66F - - - - - - 0 mhos 0 - None None - -
09/04/2015 16:17 Dry 68.0F - 66F - - - - - - 0 mhos 0 - None None - -
Date/Time
(MDT)
Sf
Temp Chem Water Layer Surface Precipitation
Sfc Pvt Sub Frz Factor Pct Dpth DpthThk IcePct Cond Salin FI Type Intens Accum Rate
09/04/2015 16:16 Dry 67.3F - 66F - - - - - - 0 mhos 0 - None None - -
09/04/2015 16:07 Dry 67.1F - 66F - - - - - - 0 mhos 0 - None None - -
09/04/2015 16:01 Dry 67.5F - 66F - - - - - - 0 mhos 0 - None None - -
09/04/2015 15:57 Dry 67.8F - 66F - - - - - - 0 mhos 0 - None None - -
09/04/2015 15:47 Dry 66.4F - 66F - - - - - - 0 mhos 0 - None None - -
09/04/2015 15:46 Dry 66.4F - 66F - - - - - - 0 mhos 0 - None None - -
09/04/2015 15:36 Dry 66.4F - 66F - - - - - - 0 mhos 0 - None None - -
09/04/2015 15:31 Dry 66.2F - 66F - - - - - - 0 mhos 0 - None None - -
09/04/2015 15:26 Dry 66.0F - 66F - - - - - - 0 mhos 0 - None None - -
09/04/2015 15:16 Dry 67.3F - 66F - - - - - - 0 mhos 0 - None None - -
09/04/2015 15:16 Dry 67.3F - 66F - - - - - - 0 mhos 0 - None None - -
09/04/2015 15:06 Dry 70.2F - 66F - - - - - - 0 mhos 0 - None None - -
09/04/2015 15:01 Dry 71.6F - 66F - - - - - - 0 mhos 0 - None None - -
09/04/2015 14:56 Dry 70.2F - 66F - - - - - - 0 mhos 0 - None None - -
09/04/2015 14:46 Dry 68.9F - 66F - - - - - - 0 mhos 0 - None None - -
Date/Time
(MDT)
Sf
Temp Chem Water Layer Surface Precipitation
Sfc Pvt Sub Frz Factor Pct Dpth DpthThk IcePct Cond Salin FI Type Intens Accum Rate
09/04/2015 14:46 Dry 68.9F - 66F - - - - - - 0 mhos 0 - None None - -
09/04/2015 14:36 Dry 69.1F - 66F - - - - - - 0 mhos 0 - None None - -
09/04/2015 14:31 Dry 68.0F - 66F - - - - - - 0 mhos 0 - None None - -
09/04/2015 14:26 Dry 66.6F - 66F - - - - - - 0 mhos 0 - None None - -
09/04/2015 14:16 Dry 63.3F - 66F - - - - - - 0 mhos 0 - None None - -
09/04/2015 14:16 Dry 63.3F - 66F - - - - - - 0 mhos 0 - None None - -
09/04/2015 14:06 Dry 58.8F - 66F - - - - - - 0 mhos 0 - None None - -
09/04/2015 14:01 Dry 58.6F - 66F - - - - - - 0 mhos 0 - None None - -
09/04/2015 13:56 Dry 59.0F - 66F - - - - - - 0 mhos 0 - None None - -
09/04/2015 13:46 Dry 58.3F - 66F - - - - - - 0 mhos 0 - None None - -
09/04/2015 13:36 Dry 57.7F - 66F - - - - - - 0 mhos 0 - None None - -
09/04/2015 13:31 Dry 57.6F - 66F - - - - - - 0 mhos 0 - None None - -
09/04/2015 13:26 Dry 57.6F - 66F - - - - - - 0 mhos 0 - None None - -
09/04/2015 13:16 Dry 57.4F - 66F - - - - - - 0 mhos 0 - None None - -
09/04/2015 13:15 Dry 57.4F - 66F - - - - - - 0 mhos 0 - None None - -
Date/Time
(MDT)
Sf
Temp Chem Water Layer Surface Precipitation
Sfc Pvt Sub Frz Factor Pct Dpth DpthThk IcePct Cond Salin FI Type Intens Accum Rate
09/04/2015 13:05 Dry 57.2F - 67F - - - - - - 0 mhos 0 - None None - -
09/04/2015 13:01 Dry 57.0F - 67F - - - - - - 0 mhos 0 - None None - -
09/04/2015 12:55 Dry 56.8F - 67F - - - - - - 0 mhos 0 - None None - -
09/04/2015 12:46 Dry 56.5F - 67F - - - - - - 0 mhos 0 - None None - -
09/04/2015 12:45 Dry 56.5F - 67F - - - - - - 0 mhos 0 - None None - -
09/04/2015 12:35 Dry 56.1F - 67F - - - - - - 0 mhos 0 - None None - -
09/04/2015 12:31 Dry 56.3F - 67F - - - - - - 0 mhos 0 - None None - -
09/04/2015 12:25 Dry 56.3F - 67F - - - - - - 0 mhos 0 - None None - -
09/04/2015 12:16 Dry 55.0F - 67F - - - - - - 0 mhos 0 - None None - -
09/04/2015 12:15 Dry 55.0F - 67F - - - - - - 0 mhos 0 - None None - -
09/04/2015 12:05 Dry 54.9F - 67F - - - - - - 0 mhos 0 - None None - -
09/04/2015 12:01 Dry 54.1F - 67F - - - - - - 0 mhos 0 - None None - -
09/04/2015 11:55 Wet 54.1F - 67F 32F 5 0% 0.00 in - 0% 0 mhos 0 - None None - -
09/04/2015 11:46 Wet 54.5F - 67F 32F 5 0% 0.00 in - 0% 0 mhos 1 - None None - -
09/04/2015 11:45 Wet 55.0F - 67F 32F 5 0% 0.00 in - 0% 0 mhos 1 - None None - -
Date/Time
(MDT)
Sf
Temp Chem Water Layer Surface Precipitation
Sfc Pvt Sub Frz Factor Pct Dpth DpthThk IcePct Cond Salin FI Type Intens Accum Rate
09/04/2015 11:35 Wet 55.4F - 67F 32F 5 0% 0.00 in - 0% 0 mhos 3 - None None - -
09/04/2015 11:31 Wet 55.0F - 67F 32F 5 0% 0.00 in - 0% 0 mhos 5 - None None - -
09/04/2015 11:25 Wet 54.9F - 67F 32F 5 0% 0.00 in - 0% 0 mhos 10 - Yes - - -
09/04/2015 11:16 Wet 54.0F - 67F 32F 5 0% 0.00 in - 0% 0 mhos 22 - Yes - - -
09/04/2015 11:15 Wet 54.0F - 67F 32F 5 0% 0.00 in - 0% 0 mhos 21 - Yes - - -
09/04/2015 11:05 Wet 53.4F - 67F 32F 5 0% 0.00 in - 0% 0 mhos 21 - Yes - - -
09/04/2015 11:01 Wet 53.2F - 67F 32F 5 0% 0.00 in - 0% 0 mhos 20 - Yes - - -
09/04/2015 10:55 Wet 53.4F - 67F 32F 5 0% 0.00 in - 0% 0 mhos 26 - Yes - - -
09/04/2015 10:46 Wet 53.6F - 67F 32F 5 0% 0.00 in - 0% 0 mhos 11 - Yes - - -
09/04/2015 10:44 Wet 53.4F - 67F 32F 5 0% 0.00 in - 0% 0 mhos 9 - Yes - - -
09/04/2015 10:34 Wet 53.4F - 67F 32F 5 0% 0.00 in - 0% 0 mhos 0 - Yes - - -
09/04/2015 10:31 Wet 53.8F - 67F 32F 5 0% 0.00 in - 0% 0 mhos 0 - Yes - - -
09/04/2015 10:24 Wet 53.6F - 67F 32F 5 0% 0.00 in - 0% 0 mhos 0 - Yes - - -
Change End Date:

Copyright © 1998-2015 Vaisala, Inc.
All Rights Reserved
Send comments about the data to:
SCAN Web ® is a registered trademark of Vaisala, Inc.
SCAN Web Version 6.0